Tracking 28790 objects as of 19-Apr-2024
HD Live streaming from Space Station
objects crossing your sky now

SECOR 13 (EGRS 13)

Track SECOR 13 (EGRS 13) now!
10-day predictions
SECOR 13 (EGRS 13) is classified as:


NORAD ID: 3891
Int'l Code: 1969-037B
Perigee: 1,075.7 km
Apogee: 1,135.4 km
Inclination: 99.8 °
Period: 107.2 minutes
Semi major axis: 7476 km
RCS: 0.2402 m2 (medium)
Launch date: April 14, 1969
Source: United States (US)
Launch site: AIR FORCE WESTERN TEST RANGE (AFWTR)
Your satellite tracking list
Your tracking list is empty




NASA's NSSDC Master Catalog

Two Line Element Set (TLE):
1  3891U 69037B   24109.68794630 -.00000010  00000-0  58193-4 0  9997
2  3891  99.7614 359.9592 0039923  27.3734  38.8458 13.42923126696249
Source of the keplerian elements: AFSPC